Weather in Alakol

Kazakhstan     54°01′16″N   75°55′57″E
temp.,
°C
wind,
m/s
gust,
m/s
humid.,
%
clouds,
%
prec.,
mm/h
press.,
hPa
HPBL,
m
25 october, mon
mon2500:00+9ssw61377100 0.0 1018359
03:00+8sw7155985 0.0 1016459
06:00+7sw8154758 0.0 1015433
09:00+7sw71548100 0.0 1015442
12:00+10wsw81239100 0.0 1015578
15:00+12wsw6941100 0.0 1016751
18:00+9sw3551100 0.0 101671
21:00+8ssw3352100 0.0 101651
26 october, tue
tue2600:00+8s3652100 0.0 1014135
03:00+8s4855100 0.0 1011171
06:00+8s51254100 0.0 1008295
09:00+8sw51154100 0.0 1006337
12:00+9w81367100 0.1 10061067
15:00+5wnw81280100 0.4 1009938
18:00+5wnw91356100 0.4 10131415
21:00+2wnw812605 0.0 10171024
27 october, wed
wed2700:000wnw610604 0.0 1021651
03:00−1w48661 0.0 1024314
06:00−3wsw367368 0.0 1026152
09:00−2wsw476730 0.0 1027297
12:00+2wsw67475 0.0 1026844
15:00+3wsw68395 0.0 10251141
18:00+1sw48477 0.0 1026189
21:000sw485064 0.0 1026166
28 october, thu
thu2800:000sw495061 0.0 1026169
03:00−1sw4751100 0.0 1025149
06:00−1ssw475538 0.0 1025131
09:00−1ssw4105373 0.0 1025272
12:00+4ssw7103640 0.0 1023619
15:00+6ssw71131100 0.0 1021932
18:00+4ssw71334100 0.0 1020515
21:00+4ssw71534100 0.0 1018545
29 october, fri
fri2900:00+5ssw81535100 0.0 1016610
03:00+4sw81438100 0.0 1015620
06:00+4sw8154128 0.0 1014629
09:00+3sw814455 0.0 1015634
12:00+6wsw9124443 0.0 1016909
15:00+6wsw81146100 0.0 1016995
18:00+5sw71351100 0.0 1016745
21:00+5sw71553100 0.0 1016628